Tracking 27086 objects as of 22-Mar-2023
HD Live streaming from Space Station
objects crossing your sky now

STARLINK-3690

Track STARLINK-3690 now!
10-day predictions
STARLINK-3690 is classified as:


NORAD ID: 51964
Int'l Code: 2022-025J
Perigee: 548.2 km
Apogee: 550.4 km
Inclination: 53.2 °
Period: 95.5 minutes
Semi major axis: 6920 km
RCS: Unknown
Launch date: March 9, 2022
Source: United States (US)
Launch site: AIR FORCE EASTERN TEST RANGE (AFETR)
Your satellite tracking list
Your tracking list is empty




NASA's NSSDC Master Catalog

Two Line Element Set (TLE):
1 51964U 22025J   23080.57207960  .00005148  00000-0  34863-3 0  9990
2 51964  53.1902 216.0061 0001582  78.4937 281.6232 15.08047423 58626
Source of the keplerian elements: AFSPC